Voltar ao catálogo

COSMOS 2251 DEB

AtivoLEO
NORAD 34572·DEBRIS·🇷🇺 Russia

Lançado Jun 16, 1993 de Plesetsk Cosmodrome

Loading…

Próximas Passagens (próximas 24 horas)

TLE

AtualizadoSource: Space-Track

Época: Sep 13, 2026, 06:01 UTC

1 34572U 93036VJ  26256.25126310  .00003417  00000-0  79705-3 0  9999
2 34572  74.0088 317.2086 0064710 323.0205 100.1393 14.53884025913639

Acompanhe COSMOS 2251 DEB em tempo real com AllMySat

Download on the App Store